DOJO

Satellite information

Favourite Embed

Satellite Type and Status

PAYLOADIN ORBIT

Key statistics

Satellite DOJO at a glance.

Uptime

58

Days in orbit

Revolutions

≈ 14.7

Per day

Orbit

SSO

Sun Synchronous Orbit

Inclination

98.0

Latest

Satellite identification and parameters

Extended collection of information and parameters for DOJO.

Object identification

Identified? True

Debris? False

Object name: DOJO

International designator: 2025-185F

Object number (NORAD): 65302

Object ID (CCSDS): 65302

Country: REPUBLIC OF RWANDA (RWA)

Current information (Y/N): Y

RCS size: LARGE

Orbital parameters

Period: 97.798 minutes

Inclination: 97.9701 deg

SMA: 7031.504 km

Apoapsis: 665.533 km

Periapsis: 641.205 km

RAAN: 14.2931 deg

Eccentricy: 0.00172993

Argument of periapsis: 140.6566 deg

Mean anomaly: 219.5902 deg

Mean motion: 14.72415642 rev/day

Mean motion (dot): 0.00003706 rev/day2

B* drag term: 0.00059108665 1/REarth

Two-line elements (TLE)

Creation date: Oct. 20, 2025, 2:10 a.m.

Reference frame: TEME

Reference center: EARTH

Epoch: Oct. 19, 2025, 4:45 p.m. UTC

TLE line 0: 0 DOJO

TLE line 1: 1 65302U 25185F 25292.69830935 .00003706 00000-0 59109-3 0 9993

TLE line 2: 2 65302 97.9701 14.2931 0017299 140.6566 219.5902 14.72415642 8357

Live tracking on map

Real-time ground track for satellite DOJO.

In-orbit conjunctions

There are no conjunctions computed for DOJO, at the moment. Check back to stay up to date, as we update our databases every day.

Go to all conjunctions

Associated space launch

'Live, Laugh, Launch' is the second of two dedicated missions on Electron for a confidential customer in 2025. This mission deployed 5 satellites to a 655 km circular Earth orbit identified as “Calistus A to E”, identified as most likely for Low Earth Orbit communication satellite constellation operator E-Space.

DOJO was lifted into orbit during the mission ‘Electron | Live, Laugh, Launch (Calistus A-E)’, on board a Electron space rocket.

The launch took place on Aug. 23, 2025, 10:42 p.m. from Rocket Lab Launch Complex 1A.

For more information about the launch, click the button.

Launch to space Electron | Live, Laugh, Launch (Calistus A-E)
Electron | Live, Laugh, Launch (Calistus A-E)

Agency: N/A

Status: Launch Successful

Launch date: Aug. 23, 2025, 10:42 p.m. UTC

Rocket: Electron

Launch pad: Rocket Lab Launch Complex 1A

Location: Rocket Lab Launch Complex 1, Mahia Peninsula, New Zealand

...

Latest news about this satellite

News about space launch
Launch Roundup: SpaceX, Chinese, and Russian missions make up busy week

A Chinese rocket, a pair of Russian missions, a trio of Falcon 9 launches, and… The post Launch Roundup: SpaceX, Chinese, and Russian missions make up busy week appeared first on NASASpaceFlight.com.


Newsletter sign-up

Weekly statistics, charts and insights to help you stay on top of the space industry.